Weather History for Baker, MT

Change the Weather History Date:

Saturday, February 23, 2013

  Actual Average Record
Temperature  
Mean Temperature 32 °F -  
Max Temperature 43 °F 6 °F 48 °F (2009)
Min Temperature 21 °F 0 °F -18 °F (2003)
Degree Days  
Heating Degree Days 33    
Moisture  
Dew Point 20 °F    
Average Humidity 59    
Maximum Humidity 72    
Minimum Humidity 32    
Precipitation  
Precipitation 0.00 in - - ()
Sea Level Pressure  
Sea Level Pressure 29.73 in    
Wind  
Wind Speed 8 mph (WNW)    
Max Wind Speed 14 mph    
Max Gust Speed 24 mph    
Visibility 10 miles    
Events      
Averages and records for this station are not official NWS values.
T = Trace of Precipitation, MM = Missing Value Source: NWS Daily Summary

Daily Weather History Graph

Daily Weather History Graph

Search for Another Location

Airport:

Trip Planner

Search our weather history database for the weather conditions in past years. The results will help you decide how hot, cold, wet, or windy it might be!

Date:

Astronomy

Feb. 23, 2013 Rise Set
Actual Time 6:46 AM MST 5:34 PM MST
Civil Twilight 6:15 AM MST 6:05 PM MST
Nautical Twilight 5:41 AM MST 6:40 PM MST
Astronomical Twilight 5:06 AM MST 7:15 PM MST
Moon 3:44 PM MST (2/23) 5:14 AM MST (2/23)
Length of Visible Light 11h 49m
Length of Day
10h 48m
Waxing Gibbous, 95% of the Moon is Illuminated
Feb 23
Waxing Gibbous
Feb 25
Full
Mar 4
Last Quarter
Mar 11
New
Mar 19
First Quarter

Hourly Weather History & Observations

Time (MST) Temp. Windchill Dew Point Humidity Pressure Visibility Wind Dir Wind Speed Gust Speed Precip Events Conditions
12:51 AM 26.1 °F 14.5 °F 15.1 °F 63% 29.73 in 10.0 mi South 13.8 mph - N/A   Clear
1:51 AM 24.1 °F 15.2 °F 14.0 °F 65% 29.71 in 10.0 mi South 8.1 mph - N/A   Clear
2:51 AM 21.9 °F 13.4 °F 14.0 °F 72% 29.69 in 10.0 mi ESE 6.9 mph - N/A   Clear
3:51 AM 21.0 °F 14.6 °F 12.9 °F 71% 29.69 in 10.0 mi SE 4.6 mph - N/A   Clear
5:51 AM 25.0 °F 16.3 °F 15.1 °F 66% 29.68 in 10.0 mi SE 8.1 mph - N/A   Overcast
6:51 AM 23.0 °F 14.7 °F 15.1 °F 72% 29.68 in 10.0 mi ESE 6.9 mph - N/A   Overcast
7:51 AM 27.0 °F 21.6 °F 17.1 °F 66% 29.67 in 10.0 mi ESE 4.6 mph - N/A   Mostly Cloudy
8:51 AM 33.1 °F - 18.0 °F 54% 29.67 in 10.0 mi Calm Calm - N/A   Overcast
9:51 AM 39.0 °F 36.8 °F 17.1 °F 41% 29.66 in 10.0 mi West 3.5 mph - N/A   Partly Cloudy
10:51 AM 42.1 °F 37.1 °F 14.0 °F 32% 29.66 in 10.0 mi SW 8.1 mph - N/A   Mostly Cloudy
11:51 AM 42.1 °F 36.1 °F 15.1 °F 34% 29.67 in 10.0 mi West 10.4 mph - N/A   Overcast
12:51 PM 43.0 °F 38.2 °F 16.0 °F 34% 29.65 in 10.0 mi WNW 8.1 mph - N/A   Mostly Cloudy
1:51 PM 43.0 °F 38.8 °F 16.0 °F 34% 29.65 in 10.0 mi WNW 6.9 mph - N/A   Mostly Cloudy
2:51 PM 42.1 °F 34.9 °F 19.9 °F 41% 29.68 in 10.0 mi WNW 13.8 mph - N/A   Overcast
3:51 PM 39.0 °F 34.0 °F 28.0 °F 65% 29.72 in 10.0 mi North 6.9 mph - N/A   Overcast
4:51 PM 39.0 °F - 27.0 °F 62% 29.73 in 10.0 mi Calm Calm - N/A   Overcast
5:51 PM 37.0 °F - 27.0 °F 67% 29.75 in 10.0 mi Calm Calm - N/A   Overcast
6:51 PM 37.0 °F 31.6 °F 27.0 °F 67% 29.80 in 10.0 mi NNW 6.9 mph - 0.00 in   Overcast
7:51 PM 35.1 °F 26.4 °F 25.0 °F 67% 29.82 in 10.0 mi NNW 12.7 mph 24.2 mph N/A   Overcast
8:51 PM 34.0 °F 26.0 °F 24.1 °F 67% 29.84 in 10.0 mi NW 10.4 mph - N/A   Overcast
9:51 PM 33.1 °F 24.9 °F 24.1 °F 70% 29.86 in 10.0 mi NW 10.4 mph - N/A   Overcast
10:51 PM 33.1 °F 25.5 °F 25.0 °F 72% 29.86 in 10.0 mi NW 9.2 mph - N/A   Overcast
11:51 PM 33.1 °F 24.9 °F 25.0 °F 72% 29.89 in 10.0 mi NW 10.4 mph - N/A   Overcast